When you browse on this site, cookies collect data to enhance your experience and personalize the content and advertising you see.
Visit our Privacy Policy to learn more. By continuing to use the site, you agree to this use of cookies and data.
EN

Hourly Weather Mansa

Today, 10 August, Monday

Time Temperature Precipitation Wind Pressure Humidity
00:00 +15°C° 0 mm 2 mps 660 mmHg 43%
01:00 +14°C° 0 mm 2 mps 660 mmHg 47%
02:00 +12°C° 0 mm 3 mps 660 mmHg 51%
03:00 +13°C° 0 mm 2 mps 659 mmHg 54%
04:00 +12°C° 0 mm 2 mps 659 mmHg 57%
05:00 +10°C° 0 mm 2 mps 659 mmHg 60%
06:00 +13°C° 0 mm 2 mps 660 mmHg 55%
07:00 +15°C° 0 mm 2 mps 661 mmHg 50%
08:00 +16°C° 0 mm 2 mps 661 mmHg 45%
09:00 +20°C° 0 mm 2 mps 662 mmHg 36%
10:00 +24°C° 0 mm 3 mps 662 mmHg 27%
11:00 +28°C° 0 mm 3 mps 663 mmHg 18%
12:00 +29°C° 0 mm 2 mps 662 mmHg 16%
13:00 +30°C° 0 mm 2 mps 662 mmHg 14%
14:00 +31°C° 0 mm 2 mps 661 mmHg 12%
15:00 +31°C° 0 mm 2 mps 661 mmHg 13%
16:00 +30°C° 0 mm 2 mps 660 mmHg 13%
17:00 +29°C° 0 mm 2 mps 660 mmHg 14%
18:00 +26°C° 0 mm 2 mps 659 mmHg 17%
19:00 +23°C° 0 mm 1 mps 659 mmHg 20%
20:00 +19°C° 0 mm 1 mps 659 mmHg 23%
21:00 +18°C° 0 mm 2 mps 659 mmHg 25%
22:00 +17°C° 0 mm 3 mps 659 mmHg 26%
23:00 +17°C° 0 mm 3 mps 660 mmHg 27%

Tomorrow, 11 August, Tuesday

Time Temperature Precipitation Wind Pressure Humidity
00:00 +16°C° 0 mm 3 mps 660 mmHg 30%
01:00 +14°C° 0 mm 3 mps 659 mmHg 33%
02:00 +13°C° 0 mm 3 mps 659 mmHg 36%
03:00 +13°C° 0 mm 3 mps 659 mmHg 38%
04:00 +12°C° 0 mm 3 mps 659 mmHg 39%
05:00 +12°C° 0 mm 3 mps 659 mmHg 40%
06:00 +13°C° 0 mm 3 mps 660 mmHg 37%
07:00 +16°C° 0 mm 3 mps 661 mmHg 34%
08:00 +18°C° 0 mm 3 mps 662 mmHg 31%
09:00 +21°C° 0 mm 3 mps 662 mmHg 26%
10:00 +25°C° 0 mm 3 mps 663 mmHg 21%
11:00 +29°C° 0 mm 3 mps 663 mmHg 16%
12:00 +31°C° 0 mm 2 mps 663 mmHg 15%
13:00 +34°C° 0 mm 2 mps 662 mmHg 13%
14:00 +34°C° 0 mm 1 mps 662 mmHg 11%
15:00 +33°C° 0 mm 1 mps 661 mmHg 12%
16:00 +32°C° 0 mm 1 mps 661 mmHg 13%
17:00 +31°C° 0 mm 1 mps 660 mmHg 13%
18:00 +27°C° 0 mm 1 mps 660 mmHg 16%
19:00 +24°C° 0 mm 1 mps 659 mmHg 20%
20:00 +20°C° 0 mm 1 mps 659 mmHg 23%
21:00 +19°C° 0 mm 2 mps 659 mmHg 23%
22:00 +19°C° 0 mm 3 mps 660 mmHg 23%
23:00 +18°C° 0 mm 3 mps 660 mmHg 24%

Day after tomorrow, 12 August, Wednesday

Time Temperature Precipitation Wind Pressure Humidity
00:00 +17°C° 0 mm 3 mps 660 mmHg 26%
01:00 +16°C° 0 mm 3 mps 659 mmHg 28%
02:00 +14°C° 0 mm 3 mps 659 mmHg 31%
03:00 +13°C° 0 mm 3 mps 659 mmHg 32%
04:00 +12°C° 0 mm 3 mps 659 mmHg 32%
05:00 +11°C° 0 mm 3 mps 659 mmHg 33%
06:00 +13°C° 0 mm 3 mps 660 mmHg 31%
07:00 +16°C° 0 mm 3 mps 661 mmHg 29%
08:00 +17°C° 0 mm 3 mps 662 mmHg 27%
09:00 +21°C° 0 mm 3 mps 662 mmHg 23%
10:00 +25°C° 0 mm 3 mps 663 mmHg 20%
11:00 +29°C° 0 mm 3 mps 663 mmHg 17%
12:00 +31°C° 0 mm 3 mps 662 mmHg 15%
13:00 +32°C° 0 mm 2 mps 662 mmHg 13%
14:00 +35°C° 0 mm 2 mps 661 mmHg 11%
15:00 +34°C° 0 mm 2 mps 661 mmHg 12%
16:00 +32°C° 0 mm 2 mps 660 mmHg 12%
17:00 +31°C° 0 mm 2 mps 659 mmHg 12%
18:00 +28°C° 0 mm 2 mps 659 mmHg 15%
19:00 +25°C° 0 mm 1 mps 659 mmHg 18%
20:00 +21°C° 0 mm 1 mps 659 mmHg 21%
21:00 +20°C° 0 mm 2 mps 659 mmHg 21%
22:00 +19°C° 0 mm 3 mps 660 mmHg 21%
23:00 +19°C° 0 mm 4 mps 660 mmHg 20%

13 August, Thursday

Time Temperature Precipitation Wind Pressure Humidity
00:00 +18°C° 0 mm 3 mps 660 mmHg 23%
01:00 +16°C° 0 mm 3 mps 659 mmHg 25%
02:00 +14°C° 0 mm 3 mps 659 mmHg 28%
03:00 +13°C° 0 mm 3 mps 659 mmHg 30%
04:00 +13°C° 0 mm 2 mps 659 mmHg 32%
05:00 +12°C° 0 mm 2 mps 659 mmHg 34%
06:00 +13°C° 0 mm 3 mps 660 mmHg 32%
07:00 +16°C° 0 mm 3 mps 661 mmHg 29%
08:00 +18°C° 0 mm 3 mps 662 mmHg 27%
09:00 +22°C° 0 mm 3 mps 662 mmHg 23%
10:00 +26°C° 0 mm 3 mps 663 mmHg 18%
11:00 +29°C° 0 mm 3 mps 663 mmHg 14%
12:00 +31°C° 0 mm 3 mps 662 mmHg 12%
13:00 +33°C° 0 mm 3 mps 662 mmHg 11%
14:00 +35°C° 0 mm 2 mps 661 mmHg 9%
15:00 +34°C° 0 mm 2 mps 660 mmHg 10%
16:00 +32°C° 0 mm 2 mps 660 mmHg 10%
17:00 +31°C° 0 mm 2 mps 659 mmHg 11%
18:00 +28°C° 0 mm 2 mps 659 mmHg 14%
19:00 +24°C° 0 mm 1 mps 659 mmHg 16%
20:00 +21°C° 0 mm 1 mps 659 mmHg 19%
21:00 +19°C° 0 mm 2 mps 659 mmHg 21%
22:00 +19°C° 0 mm 3 mps 659 mmHg 23%
23:00 +18°C° 0 mm 3 mps 660 mmHg 25%

14 August, Friday

Time Temperature Precipitation Wind Pressure Humidity
00:00 +17°C° 0 mm 3 mps 659 mmHg 27%
01:00 +17°C° 0 mm 3 mps 659 mmHg 29%
02:00 +16°C° 0 mm 3 mps 659 mmHg 32%
03:00 +14°C° 0 mm 3 mps 659 mmHg 33%
04:00 +13°C° 0 mm 3 mps 659 mmHg 34%
05:00 +12°C° 0 mm 3 mps 659 mmHg 35%
06:00 +14°C° 0 mm 4 mps 659 mmHg 33%
07:00 +17°C° 0 mm 4 mps 660 mmHg 30%
08:00 +19°C° 0 mm 4 mps 661 mmHg 28%
09:00 +22°C° 0 mm 4 mps 662 mmHg 25%
10:00 +26°C° 0 mm 4 mps 662 mmHg 22%
11:00 +29°C° 0 mm 4 mps 662 mmHg 18%
12:00 +30°C° 0 mm 3 mps 662 mmHg 16%
13:00 +33°C° 0 mm 3 mps 661 mmHg 14%
14:00 +34°C° 0 mm 2 mps 660 mmHg 12%
15:00 +32°C° 0 mm 2 mps 660 mmHg 12%
16:00 +32°C° 0 mm 2 mps 659 mmHg 12%
17:00 +31°C° 0 mm 2 mps 659 mmHg 13%
18:00 +28°C° 0 mm 2 mps 658 mmHg 16%
19:00 +24°C° 0 mm 2 mps 658 mmHg 20%
20:00 +21°C° 0 mm 1 mps 658 mmHg 23%
21:00 +19°C° 0 mm 2 mps 658 mmHg 25%
22:00 +18°C° 0 mm 3 mps 658 mmHg 26%
23:00 +17°C° 0 mm 3 mps 658 mmHg 28%

15 August, Saturday

Time Temperature Precipitation Wind Pressure Humidity
00:00 +17°C° 0 mm 3 mps 658 mmHg 28%
01:00 +15°C° 0 mm 4 mps 658 mmHg 29%
02:00 +14°C° 0 mm 4 mps 657 mmHg 30%
03:00 +13°C° 0 mm 3 mps 657 mmHg 33%
04:00 +12°C° 0 mm 3 mps 657 mmHg 37%
05:00 +11°C° 0 mm 3 mps 657 mmHg 41%
06:00 +13°C° 0 mm 3 mps 658 mmHg 41%
07:00 +16°C° 0 mm 3 mps 659 mmHg 40%
08:00 +18°C° 0 mm 3 mps 660 mmHg 40%
09:00 +22°C° 0 mm 3 mps 660 mmHg 34%
10:00 +27°C° 0 mm 2 mps 661 mmHg 28%
11:00 +31°C° 0 mm 2 mps 661 mmHg 22%
12:00 +33°C° 0 mm 1 mps 661 mmHg 18%
13:00 +36°C° 0 mm 1 mps 661 mmHg 15%
14:00 +36°C° 0 mm 0 mps 660 mmHg 12%
15:00 +34°C° 0 mm 0 mps 659 mmHg 13%
16:00 +34°C° 0 mm 1 mps 659 mmHg 14%
17:00 +32°C° 0 mm 1 mps 658 mmHg 14%
18:00 +29°C° 0 mm 1 mps 657 mmHg 19%
19:00 +25°C° 0 mm 1 mps 657 mmHg 23%
20:00 +21°C° 0 mm 1 mps 657 mmHg 27%
21:00 +21°C° 0 mm 1 mps 657 mmHg 27%
22:00 +20°C° 0 mm 1 mps 657 mmHg 26%
23:00 +20°C° 0 mm 1 mps 657 mmHg 26%
Show more